This demonstration page uses our WeatherBlox Daily Observations layout. Learn more.

Left ArrowRight Arrow

38.20091, -84.87328

Hourly Observations for February 12, 2022

Temp ( °F °C ) Dew Point ( °F °C ) Humidity (%) Winds ( mph kmh ) Pressure ( in mb ) Visibility ( mi km ) Precip ( " mm )
12:53 am 00:53 Mostly Cloudy 43 6.1 36 2.2 76 76 SW 5 7 29.96 1015 10 16 0.00 0.00
1:53 am 01:53 Mostly Cloudy 43 6.1 36 2.2 76 76 W 6 9 30.00 1016 10 16 0.00 0.00
2:17 am 02:17 Cloudy 44 6.7 36 2.2 73 73 W 5 7 30.02 1017 10 16 0.00 0.00
2:53 am 02:53 Cloudy 44 6.7 37 2.8 76 76 WNW 10 17 30.02 1017 10 16 0.00 0.00
3:53 am 03:53 Cloudy 42 5.6 35 1.7 76 76 WNW 9 15 30.03 1017 10 16 0.00 0.00
4:36 am 04:36 Mostly Clear 40 4.4 32 0 73 73 WNW 12 19 30.08 1019 10 16 0.00 0.00
4:53 am 04:53 Clear 38 3.3 31 -0.6 76 76 WNW 12 19 30.06 1018 10 16 0.00 0.00
5:15 am 05:15 Mostly Cloudy 37 2.8 30 -1.1 76 76 WNW 10 17 30.11 1020 10 16 0.00 0.00
5:53 am 05:53 Mostly Cloudy 36 2.2 28 -2.2 73 73 NW 12 19 30.11 1020 10 16 0.00 0.00
6:53 am 06:53 Cloudy 33 0.6 24 -4.4 70 70 WNW 10 17 30.14 1021 10 16 0.00 0.00
7:53 am 07:53 Mostly Cloudy 31 -0.6 23 -5 72 72 VRB 7 11 30.19 1022 10 16 0.00 0.00
8:53 am 08:53 Cloudy 32 0 22 -5.6 66 66 WNW 12 19 30.22 1023 10 16 0.00 0.00
9:53 am 09:53 Cloudy 32 0 22 -5.6 66 66 NW 8 13 30.25 1024 10 16 0.00 0.00
10:53 am 10:53 Cloudy 32 0 23 -5 69 69 NNW 6 9 30.27 1025 10 16 0.00 0.00
11:53 am 11:53 Cloudy 32 0 22 -5.6 66 66 WNW 8 13 30.28 1025 10 16 0.00 0.00
12:53 pm 12:53 Cloudy 32 0 22 -5.6 66 66 NW 8 13 30.26 1025 10 16 0.00 0.00
1:53 pm 13:53 Cloudy 32 0 22 -5.6 66 66 WNW 8 13 30.25 1024 10 16 0.00 0.00
2:53 pm 14:53 Cloudy 31 -0.6 21 -6.1 67 67 W 8 13 30.25 1024 10 16 0.00 0.00
3:53 pm 15:53 Cloudy 30 -1.1 20 -6.7 66 66 WNW 10 17 30.25 1025 10 16 0.00 0.00
4:53 pm 16:53 Cloudy 30 -1.1 20 -6.7 66 66 WNW 9 15 30.27 1025 10 16 0.00 0.00
5:53 pm 17:53 Cloudy 30 -1.1 20 -6.7 66 66 WNW 7 11 30.29 1026 10 16 0.00 0.00
6:53 pm 18:53 Cloudy 29 -1.7 20 -6.7 69 69 WNW 8 13 30.29 1026 10 16 0.00 0.00
7:53 pm 19:53 Cloudy 29 -1.7 19 -7.2 66 66 NW 6 9 30.29 1026 10 16 0.00 0.00
8:53 pm 20:53 Cloudy 29 -1.7 19 -7.2 66 66 WNW 6 9 30.30 1026 10 16 0.00 0.00
9:32 pm 21:32 Cloudy 28 -2.2 17 -8.3 63 63 NW 7 11 30.33 1027 10 16 0.00 0.00
9:53 pm 21:53 Cloudy 28 -2.2 17 -8.3 63 63 NW 7 11 30.31 1027 10 16 0.00 0.00
10:53 pm 22:53 Cloudy 28 -2.2 15 -9.4 58 58 WNW 6 9 30.32 1027 10 16 0.00 0.00
11:53 pm 23:53 Cloudy 27 -2.8 15 -9.4 61 61 WNW 8 13 30.31 1027 10 16 0.00 0.00

Powered by AerisWeather